Location: Ede
(52.0333°N, 5.6667°E)
Time: 09:24:05
(UTC+02:00)

ISS - Visible Passes

Search period start: 02 July 2022 00:00
Search period end: 12 July 2022 00:00
Orbit: 414 x 420 km, 51.6° (Epoch: 02 July)

Date Brightness Start Highest point End Pass type
(mag) Time Alt. Az. Time Alt. Az. Time Alt. Az.
02 Jul -2.8 04:08:29 12° SW 04:11:17 34° SSE 04:14:23 10° E visible
03 Jul -2.4 03:21:52 19° S 03:23:14 25° SSE 03:26:03 10° E visible
04 Jul -2.0 02:35:12 18° SE 02:35:12 18° SE 02:37:33 10° E visible
04 Jul -3.6 04:08:11 10° WSW 04:11:29 57° SSE 04:14:49 10° E visible
05 Jul -1.2 01:48:29 10° ESE 01:48:29 10° ESE 01:48:39 10° ESE visible
05 Jul -3.3 03:21:22 20° SW 03:23:21 44° SSE 03:26:34 10° E visible
06 Jul -3.0 02:34:35 30° S 02:35:12 33° SSE 02:38:16 10° E visible
06 Jul -3.8 04:08:22 10° WSW 04:11:44 79° S 04:15:07 10° E visible
07 Jul -2.3 01:47:43 22° SE 01:47:43 22° SE 01:49:53 10° E visible
07 Jul -3.8 03:20:36 13° WSW 03:23:31 69° SSE 03:26:53 10° E visible
08 Jul -1.4 01:00:47 12° ESE 01:00:47 12° ESE 01:01:18 10° E visible
08 Jul -3.7 02:33:39 26° SW 02:35:18 55° SSE 02:38:37 10° E visible
08 Jul -3.8 04:08:37 10° W 04:12:00 86° S 04:15:22 10° E visible
09 Jul -3.4 01:46:34 39° S 01:47:06 42° SSE 01:50:19 10° E visible
09 Jul -3.8 03:20:21 10° W 03:23:43 85° S 03:27:07 10° E visible
10 Jul -2.9 00:59:15 31° SE 00:59:15 31° SE 01:01:58 10° E visible
10 Jul -3.9 02:32:05 10° WSW 02:35:27 78° S 02:38:49 10° E visible
10 Jul -3.8 04:08:49 10° W 04:12:11 74° S 04:15:33 10° ESE visible
11 Jul -2.4 00:11:25 22° SE 00:11:25 22° SE 00:13:30 10° E visible
11 Jul -3.9 01:44:12 12° WSW 01:47:10 67° SSE 01:50:31 10° E visible
11 Jul -3.9 03:20:31 10° W 03:23:54 83° S 03:27:16 10° E visible
11 Jul -2.2 23:20:30 10° S 23:22:40 16° SE 23:24:51 10° ESE visible
